Arlington, IN (46104)

4:21 PM EDT on July 24, 2016 (GMT -0400)
Wilson Estates | | Change Station
Active Advisory: Heat Advisory

Elev 971 ft 39.62 °N, 85.45 °W | Updated 38 seconds ago

Partly Cloudy
Partly Cloudy
94.6 °F
Feels Like 106 °F
N
0.2
Wind Variable Wind from South
Gusts 2.5 mph

Today
High -- | Low -- °F
--% Chance of Precip.
Yesterday
High -- | Low -- °F
Precip. -- in
Pressure 29.95 in
Visibility 10.0 miles
Clouds Few 3700 ft
Heat Index 106 °F
Dew Point 75 °F
Humidity 53%
Rainfall 0.00 in
Snow Depth Not available.
6:34 AM 9:02 PM
Waning Gibbous, 73% visible
METAR KGEZ 241953Z AUTO 22008KT 10SM FEW037 33/24 A2998 RMK AO2 SLP142 T03330244
Pressure 29.95 in
Visibility 10.0 miles
Clouds Few 3700 ft
Heat Index 106 °F
Dew Point 75 °F
Humidity 53%
Rainfall 0.00 in
Snow Depth Not available.
6:34 AM 9:02 PM
Waning Gibbous, 73% visible
METAR KGEZ 241953Z AUTO 22008KT 10SM FEW037 33/24 A2998 RMK AO2 SLP142 T03330244

10-Day Weather Forecast

Almanac

Astronomy

Jul. 24, 2016 Rise Set
Actual Time
Civil Twilight
Nautical Twilight
Astronomical Twilight
Moon
Length of Visible Light
Length of Day
Tomorrow will be .
, % of the Moon is Illuminated

Today's Extremes

State Highs State Lows

Community

WunderPhotos

Upload Photos

1,927,181 photos uploaded!

WunderBlog® & News

Nearby

Air Quality

  Air Quality AQ Index Pollutant
Not available.

Snow Depth

Station Depth Elevation

Earthquake Activity

City Distance Mag. Time & Date
Minimum magnitude displayed is 2.5.

Coastal Water Temperatures

Place Temperature

Stations

Nearby Weather Stations

Station Location Temp. Windchill Dew Point Humidity Wind Precip. Elev Updated Type
                   

Watches & Warnings

Heat Advisory
Issued: 3:23 PM EDT Jul. 24, 2016 – National Weather Service

... Heat advisory remains in effect until 8 PM EDT this evening...

* temperature... maximums will reach the lower to middle 90s
while dewpoint temperatures reach the middle 70s.

* Heat index... heat index values will approach 105 degrees this
afternoon.

* Impacts... there is a risk for heat related illnesses with
prolonged outdoor exposure or no access to air conditioning.

Precautionary/preparedness actions...

A heat advisory means that a period of hot temperatures is
expected. The combination of hot temperatures and high humidity
will combine to create a situation in which heat illnesses are
possible. Drink plenty of fluids... stay in an air-conditioned
room... stay out of the sun... and check up on relatives and
neighbors.